Stündliche Wetter Warzyce

Heute, 25 Oktober, Sonntag

Zeit Temperatur Niederschläge Wind Luftdruck Luftfeuchtigkeit
00:00 +10°C° 0 mm 0 m/S 740 mmHg 93%
01:00 +9°C° 0 mm 0 m/S 740 mmHg 94%
02:00 +9°C° 0 mm 0 m/S 739 mmHg 94%
03:00 +9°C° 0 mm 0 m/S 739 mmHg 94%
04:00 +10°C° 0 mm 1 m/S 739 mmHg 94%
05:00 +10°C° 0 mm 1 m/S 739 mmHg 94%
06:00 +10°C° 0 mm 1 m/S 739 mmHg 94%
07:00 +10°C° 0 mm 1 m/S 739 mmHg 95%
08:00 +11°C° 0 mm 1 m/S 739 mmHg 89%
09:00 +13°C° 0 mm 2 m/S 739 mmHg 83%
10:00 +14°C° 0 mm 2 m/S 738 mmHg 78%
11:00 +14°C° 0 mm 2 m/S 738 mmHg 77%
12:00 +15°C° 0 mm 2 m/S 738 mmHg 77%
13:00 +15°C° 0 mm 2 m/S 738 mmHg 77%
14:00 +14°C° 0.1 mm 2 m/S 737 mmHg 81%
15:00 +14°C° 0.1 mm 2 m/S 737 mmHg 86%
16:00 +13°C° 0.1 mm 1 m/S 737 mmHg 90%
17:00 +13°C° 0 mm 2 m/S 737 mmHg 91%
18:00 +13°C° 0 mm 2 m/S 737 mmHg 92%
19:00 +12°C° 0 mm 2 m/S 737 mmHg 93%
20:00 +12°C° 0 mm 2 m/S 737 mmHg 93%
21:00 +12°C° 0 mm 2 m/S 737 mmHg 93%
22:00 +12°C° 0 mm 2 m/S 736 mmHg 93%
23:00 +11°C° 0 mm 3 m/S 736 mmHg 93%

Morgen, 26 Oktober, Montag

Zeit Temperatur Niederschläge Wind Luftdruck Luftfeuchtigkeit
00:00 +11°C° 0 mm 3 m/S 736 mmHg 93%
01:00 +11°C° 0 mm 3 m/S 736 mmHg 93%
02:00 +11°C° 0 mm 3 m/S 736 mmHg 92%
03:00 +11°C° 0 mm 4 m/S 736 mmHg 91%
04:00 +12°C° 0 mm 4 m/S 736 mmHg 91%
05:00 +11°C° 0 mm 4 m/S 735 mmHg 91%
06:00 +11°C° 0 mm 4 m/S 735 mmHg 91%
07:00 +11°C° 0 mm 4 m/S 735 mmHg 91%
08:00 +12°C° 0 mm 5 m/S 735 mmHg 87%
09:00 +14°C° 0 mm 6 m/S 735 mmHg 83%
10:00 +15°C° 0 mm 7 m/S 735 mmHg 78%
11:00 +15°C° 0 mm 7 m/S 735 mmHg 76%
12:00 +15°C° 0 mm 7 m/S 735 mmHg 75%
13:00 +15°C° 0 mm 7 m/S 735 mmHg 73%
14:00 +15°C° 0 mm 7 m/S 735 mmHg 76%
15:00 +14°C° 0 mm 6 m/S 735 mmHg 79%
16:00 +13°C° 0 mm 6 m/S 734 mmHg 81%
17:00 +13°C° 0 mm 6 m/S 735 mmHg 82%
18:00 +13°C° 0 mm 6 m/S 735 mmHg 83%
19:00 +13°C° 0 mm 6 m/S 735 mmHg 84%
20:00 +13°C° 0 mm 6 m/S 735 mmHg 84%
21:00 +13°C° 0 mm 6 m/S 735 mmHg 85%
22:00 +13°C° 0 mm 5 m/S 735 mmHg 86%
23:00 +13°C° 0 mm 6 m/S 735 mmHg 86%

übermorgen, 27 Oktober, Dienstag

Zeit Temperatur Niederschläge Wind Luftdruck Luftfeuchtigkeit
00:00 +13°C° 0 mm 6 m/S 735 mmHg 86%
01:00 +13°C° 0 mm 6 m/S 735 mmHg 86%
02:00 +11°C° 0 mm 6 m/S 735 mmHg 86%
03:00 +11°C° 0 mm 6 m/S 736 mmHg 87%
04:00 +12°C° 0 mm 5 m/S 736 mmHg 87%
05:00 +12°C° 0 mm 5 m/S 736 mmHg 88%
06:00 +12°C° 0 mm 5 m/S 736 mmHg 88%
07:00 +12°C° 0 mm 5 m/S 736 mmHg 89%
08:00 +13°C° 0 mm 5 m/S 736 mmHg 82%
09:00 +15°C° 0 mm 5 m/S 736 mmHg 75%
10:00 +16°C° 0 mm 6 m/S 736 mmHg 68%
11:00 +17°C° 0 mm 5 m/S 736 mmHg 66%
12:00 +17°C° 0 mm 5 m/S 736 mmHg 64%
13:00 +19°C° 0 mm 5 m/S 736 mmHg 61%
14:00 +16°C° 0 mm 5 m/S 736 mmHg 67%
15:00 +15°C° 0 mm 4 m/S 736 mmHg 72%
16:00 +14°C° 0 mm 3 m/S 736 mmHg 78%
17:00 +13°C° 0 mm 3 m/S 736 mmHg 80%
18:00 +13°C° 0 mm 3 m/S 736 mmHg 83%
19:00 +12°C° 0 mm 3 m/S 736 mmHg 86%
20:00 +12°C° 0 mm 3 m/S 736 mmHg 87%
21:00 +12°C° 0 mm 2 m/S 736 mmHg 87%
22:00 +12°C° 0 mm 2 m/S 737 mmHg 88%
23:00 +12°C° 0 mm 2 m/S 737 mmHg 88%

28 Oktober, Mittwoch

Zeit Temperatur Niederschläge Wind Luftdruck Luftfeuchtigkeit
00:00 +12°C° 0 mm 2 m/S 737 mmHg 88%
01:00 +12°C° 0 mm 1 m/S 737 mmHg 88%
02:00 +11°C° 0 mm 1 m/S 737 mmHg 88%
03:00 +11°C° 0 mm 1 m/S 737 mmHg 88%
04:00 +11°C° 0 mm 1 m/S 737 mmHg 88%
05:00 +10°C° 0 mm 0 m/S 738 mmHg 88%
06:00 +10°C° 0 mm 0 m/S 738 mmHg 88%
07:00 +10°C° 0 mm 0 m/S 738 mmHg 88%
08:00 +11°C° 0 mm 0 m/S 738 mmHg 83%
09:00 +13°C° 0 mm 0 m/S 738 mmHg 78%
10:00 +15°C° 0 mm 1 m/S 738 mmHg 73%
11:00 +16°C° 0 mm 1 m/S 738 mmHg 70%
12:00 +18°C° 0 mm 1 m/S 738 mmHg 67%
13:00 +18°C° 0 mm 1 m/S 738 mmHg 64%
14:00 +16°C° 0 mm 1 m/S 738 mmHg 69%
15:00 +15°C° 0 mm 1 m/S 738 mmHg 74%
16:00 +14°C° 0 mm 1 m/S 738 mmHg 79%
17:00 +14°C° 0 mm 1 m/S 738 mmHg 82%
18:00 +13°C° 0 mm 1 m/S 738 mmHg 85%
19:00 +12°C° 0 mm 1 m/S 738 mmHg 88%
20:00 +12°C° 0 mm 1 m/S 738 mmHg 89%
21:00 +12°C° 0 mm 1 m/S 738 mmHg 89%
22:00 +11°C° 0 mm 1 m/S 739 mmHg 90%
23:00 +11°C° 0 mm 1 m/S 739 mmHg 90%

29 Oktober, Donnerstag

Zeit Temperatur Niederschläge Wind Luftdruck Luftfeuchtigkeit
00:00 +11°C° 0 mm 1 m/S 739 mmHg 91%
01:00 +11°C° 0 mm 1 m/S 739 mmHg 91%
02:00 +10°C° 0 mm 1 m/S 739 mmHg 91%
03:00 +10°C° 0 mm 1 m/S 739 mmHg 92%
04:00 +10°C° 0 mm 1 m/S 739 mmHg 93%
05:00 +10°C° 0 mm 1 m/S 739 mmHg 93%
06:00 +10°C° 0 mm 1 m/S 739 mmHg 93%
07:00 +10°C° 0 mm 1 m/S 740 mmHg 93%
08:00 +12°C° 0 mm 1 m/S 740 mmHg 87%
09:00 +13°C° 0 mm 1 m/S 740 mmHg 81%
10:00 +15°C° 0 mm 1 m/S 740 mmHg 75%
11:00 +16°C° 0 mm 1 m/S 740 mmHg 71%
12:00 +16°C° 0 mm 1 m/S 740 mmHg 66%
13:00 +18°C° 0 mm 1 m/S 740 mmHg 62%
14:00 +16°C° 0 mm 1 m/S 741 mmHg 66%
15:00 +15°C° 0 mm 1 m/S 741 mmHg 70%
16:00 +14°C° 0 mm 1 m/S 741 mmHg 74%
17:00 +13°C° 0 mm 1 m/S 741 mmHg 77%
18:00 +12°C° 0 mm 1 m/S 741 mmHg 80%
19:00 +11°C° 0 mm 1 m/S 742 mmHg 83%
20:00 +11°C° 0 mm 1 m/S 742 mmHg 83%
21:00 +11°C° 0 mm 1 m/S 743 mmHg 84%
22:00 +11°C° 0 mm 1 m/S 743 mmHg 84%
23:00 +11°C° 0 mm 1 m/S 743 mmHg 84%

30 Oktober, Freitag

Zeit Temperatur Niederschläge Wind Luftdruck Luftfeuchtigkeit
00:00 +11°C° 0 mm 1 m/S 743 mmHg 84%
01:00 +11°C° 0 mm 1 m/S 743 mmHg 83%
02:00 +11°C° 0 mm 1 m/S 743 mmHg 84%
03:00 +10°C° 0 mm 1 m/S 744 mmHg 84%
04:00 +10°C° 0 mm 1 m/S 744 mmHg 85%
05:00 +10°C° 0 mm 1 m/S 744 mmHg 84%
06:00 +9°C° 0 mm 2 m/S 744 mmHg 84%
07:00 +9°C° 0 mm 2 m/S 744 mmHg 84%
08:00 +12°C° 0 mm 2 m/S 744 mmHg 78%
09:00 +12°C° 0 mm 3 m/S 744 mmHg 73%
10:00 +14°C° 0 mm 4 m/S 744 mmHg 67%
11:00 +14°C° 0 mm 4 m/S 744 mmHg 66%
12:00 +15°C° 0 mm 4 m/S 744 mmHg 65%
13:00 +15°C° 0 mm 4 m/S 744 mmHg 65%
14:00 +14°C° 0 mm 4 m/S 744 mmHg 70%
15:00 +13°C° 0 mm 3 m/S 744 mmHg 76%
16:00 +12°C° 0 mm 3 m/S 744 mmHg 81%
17:00 +12°C° 0 mm 3 m/S 744 mmHg 84%
18:00 +11°C° 0 mm 3 m/S 745 mmHg 86%
19:00 +11°C° 0 mm 3 m/S 745 mmHg 88%
20:00 +10°C° 0 mm 3 m/S 745 mmHg 88%
21:00 +10°C° 0 mm 3 m/S 745 mmHg 88%
22:00 +10°C° 0 mm 3 m/S 745 mmHg 88%
23:00 +10°C° 0 mm 3 m/S 745 mmHg 88%
Mehr zeigen

Wir brauchen deine Erlaubnis

Meteoprog und unser Service Anbieter werden persönliche Daten aufbewahren, so wie Cookies, Geräte Bezeichnung oder ähnliche Technologien von deinem Gerät und Prozess, so wie Persönliche Daten Inhalte und Werbungen, genauso wie social Media und den Verkehr zu analysieren.

  • Aufbewahrung und/oder Zugang zu deiner Geräte Informationen.

    Cookies, Geräte Bezeichnung oder andere Informationen, können aufbewahrt oder Zugang zu deinem Gerät erhalten, für den Grund, der oben angegeben wird.

  • Personalisierte Werbung und Inhalte, Messungen, Einblick in das Publikum und Produkt Entwicklung.

    Werbungen und Inhalte können personalisiert werden, basierend auf ein Profil. Mehr Daten können besser personalisierte Werbungen und Inhalte hinzufügen. Werbung und Inhalte können gezeigt und gemessen werden. Einblicke über das Publikum, welche die Werbung gesehen haben und den Inhalt, können abgeleitet werden. So wie Daten können genutzt werden, um es zu verbessern oder die Benutzer Erfahrung zu verbessern das System und die Software.

Wenn du “Ich stimme zu” klickst, erlaubst du uns, die Cookies zu benutzen die Geräte Bezeichnung, den Web oder ähnliche Technologien zu benutzen. Deine Settings, können in deinem Gerät bei deinem Browser geändert werden.

Für den bestimmten Zweck, berechtigten Interessen beruhen darauf, mehr als auf den Inhalt. Du kannst mehr darüber in unseren Privaten und Cookie Politik lesen.